Location: Yellowknife
(62.4500°N, 114.3500°W)
Time: 12:52:44
(UTC-07:00)

Amateur Radio Satellites - All Passes

Search period start: 01 March 2017 12:22
Search period end: 02 March 2017 12:22
Location: Yellowknife, 62.4500°N, 114.3500°W

Satellite Date Start Highest point End Downlink Frequencies (MHz)
Time Altitude Azimuth
AAUSAT CUBESAT 2 01 Mar 12:24:04 12:24:57 11° 326° (NW) 12:25:49 437.432
HO-68 01 Mar 12:26:27 12:31:59 25° 337° (NNW) 12:37:32 435.675
VELOX 1 01 Mar 12:26:47 12:30:46 31° 95° (E) 12:34:43 145.980
Gurwin Techsat 1B 01 Mar 12:28:01 12:33:13 56° 61° (ENE) 12:38:27 435.225
LO-87 01 Mar 12:31:34 12:35:09 65° 293° (WNW) 12:38:45 145.935 - 145.965
AIST 2D 01 Mar 12:39:11 12:40:26 11° 278° (W) 12:41:41 435.315
BEESAT 3 01 Mar 12:39:42 12:43:40 59° 215° (SW) 12:47:38 437.485
AO-7 01 Mar 12:40:01 12:47:49 46° 39° (NE) 12:55:37 .
50 SAT 01 Mar 12:40:20 12:43:20 26° 94° (E) 12:46:20 437.505
AO-85 01 Mar 12:41:37 12:43:46 14° 240° (WSW) 12:45:53 145.980
Oscar 19 01 Mar 12:45:15 12:50:25 85° 251° (WSW) 12:55:36 437.125/150
AO-73 01 Mar 12:53:14 12:55:23 13° 326° (NW) 12:57:32 145.935
Oscar 11 01 Mar 12:54:12 12:56:07 13° 324° (NW) 12:58:03 .
DELFI C3 01 Mar 13:14:25 13:16:21 13° 319° (NW) 13:18:18 145.870
YUBILEINY 01 Mar 13:18:30 13:26:34 38° 313° (NW) 13:34:39 435.215
DUCHIFAT 1 01 Mar 13:20:19 13:21:57 12° 280° (W) 13:23:37 145.980
BEESAT 2 01 Mar 13:28:22 13:32:20 52° 218° (SW) 13:36:17 435.950
ITAMSAT 1 01 Mar 13:29:21 13:34:20 46° 56° (ENE) 13:39:20 435.822/435.867
SPROUT 01 Mar 13:35:42 13:40:03 85° 105° (ESE) 13:44:24 437.525
CUTE-I 01 Mar 13:36:44 13:38:42 12° 14° (NNE) 13:40:40 437.470
DX 1 01 Mar 13:38:57 13:43:16 56° 103° (ESE) 13:47:35 434.975-435.025
UKube-1 01 Mar 13:41:33 13:45:45 47° 101° (E) 13:49:56 .
BUGSAT 1 01 Mar 13:58:02 13:59:43 12° 280° (W) 14:01:25 437.445
ESTCUBE 1 01 Mar 13:58:39 14:02:43 34° 305° (NW) 14:06:46 437.505/2401.250
ITUPSAT 1 01 Mar 13:59:38 14:01:54 13° 79° (E) 14:04:10 437.325
BEESAT 01 Mar 14:02:51 14:05:22 14° 80° (E) 14:07:51 436.000
VELOX 1 01 Mar 14:03:09 14:07:32 60° 295° (WNW) 14:11:53 145.980
LO-87 01 Mar 14:05:53 14:08:03 15° 313° (NW) 14:10:14 145.935 - 145.965
Gurwin Techsat 1B 01 Mar 14:08:22 14:13:24 42° 263° (W) 14:18:29 435.225
HO-68 01 Mar 14:12:47 14:17:44 21° 3° (N) 14:22:40 435.675
50 SAT 01 Mar 14:13:18 14:16:40 49° 296° (WNW) 14:20:03 437.505
BEESAT 3 01 Mar 14:17:51 14:20:39 18° 237° (WSW) 14:23:27 437.485
Oscar 19 01 Mar 14:26:27 14:30:31 23° 273° (W) 14:34:34 437.125/150
AO-7 01 Mar 14:31:46 14:40:11 86° 244° (WSW) 14:48:36 .
DOVE 4 01 Mar 14:52:10 14:54:08 13° 34° (NE) 14:56:09 437.250
BEESAT 2 01 Mar 15:06:54 15:09:22 16° 240° (WSW) 15:11:51 435.950
ITAMSAT 1 01 Mar 15:08:44 15:13:50 52° 259° (WSW) 15:19:00 435.822/435.867
SPROUT 01 Mar 15:12:03 15:15:37 25° 309° (NW) 15:19:09 437.525
KAITUO 1B 01 Mar 15:12:25 15:13:23 11° 38° (NE) 15:14:22 145.475/437.950
CUTE-I 01 Mar 15:13:06 15:17:06 22° 38° (NE) 15:21:06 437.470
DX 1 01 Mar 15:15:23 15:19:22 35° 304° (NW) 15:23:20 434.975-435.025
UKube-1 01 Mar 15:17:45 15:21:48 40° 302° (WNW) 15:25:51 .
MOZHAYETS 4 01 Mar 15:18:14 15:21:56 23° 88° (E) 15:25:35
YUBILEINY 01 Mar 15:19:59 15:26:31 22° 344° (NNW) 15:33:03 435.215
PCSat 01 Mar 15:22:15 15:25:57 19° 111° (ESE) 15:29:39 145.827
XW-2F 01 Mar 15:24:02 15:26:00 14° 43° (NE) 15:27:58 145.980 - 146.000
XW-2D 01 Mar 15:31:15 15:33:32 15° 45° (NE) 15:35:50 145.860 - 145.880
ITUPSAT 1 01 Mar 15:36:10 15:40:54 52° 102° (ESE) 15:45:35 437.325
XW-2B 01 Mar 15:36:16 15:38:40 16° 46° (NE) 15:41:05 145.730 - 145.750
ESTCUBE 1 01 Mar 15:36:28 15:38:26 13° 327° (NNW) 15:40:26 437.505/2401.250
BEESAT 01 Mar 15:39:29 15:44:14 55° 102° (ESE) 15:48:56 436.000
NUDT-PHONESAT 01 Mar 15:39:54 15:42:05 15° 45° (NE) 15:44:17 437.300
VELOX 1 01 Mar 15:40:15 15:43:18 19° 317° (NW) 15:46:21 145.980
XW-2C 01 Mar 15:44:48 15:47:27 18° 48° (NE) 15:50:06 145.795 - 145.815
50 SAT 01 Mar 15:47:34 15:49:06 13° 316° (NW) 15:50:39 437.505
Gurwin Techsat 1B 01 Mar 15:53:14 15:54:52 11° 286° (WNW) 15:56:30 435.225
RS-15 01 Mar 15:56:21 16:05:13 25° 99° (E) 16:14:12 29.354- 29.394
HO-68 01 Mar 15:57:43 16:03:33 28° 29° (NNE) 16:09:24 435.675
LilacSat-2 01 Mar 16:06:10 16:09:20 24° 53° (NE) 16:12:30 437.200
CUBEBUG 2 01 Mar 16:15:27 16:16:29 11° 26° (NNE) 16:17:32 437.445
AO-7 01 Mar 16:26:41 16:34:06 34° 269° (W) 16:41:33 .
DOVE 4 01 Mar 16:26:52 16:30:46 37° 58° (ENE) 16:34:51 437.250
CUBESAT XI-V 01 Mar 16:30:33 16:34:08 22° 87° (E) 16:37:41 437.345
CUTE 1.7 + AOD 2 01 Mar 16:40:35 16:43:01 15° 41° (NE) 16:45:27 437.475
UWE-3 01 Mar 16:42:10 16:43:29 11° 28° (NNE) 16:44:49 435.000/436.395/437.385
KAITUO 1B 01 Mar 16:43:00 16:46:30 35° 60° (ENE) 16:50:01 145.475/437.950
KKS-1 01 Mar 16:50:37 16:54:47 36° 97° (E) 16:58:56 437.445
CUTE-I 01 Mar 16:51:04 16:56:18 57° 60° (ENE) 17:01:35 437.470
ITAMSAT 1 01 Mar 16:51:50 16:54:34 14° 281° (W) 16:57:19 435.822/435.867
DX 1 01 Mar 16:52:35 16:54:32 13° 327° (NNW) 16:56:28 434.975-435.025
UKube-1 01 Mar 16:54:40 16:56:55 14° 324° (NW) 16:59:09 .
MOZHAYETS 4 01 Mar 16:55:02 16:59:43 86° 289° (WNW) 17:04:19
XW-2F 01 Mar 16:55:40 16:59:24 48° 64° (ENE) 17:03:08 145.980 - 146.000
PCSat 01 Mar 17:03:06 17:08:24 57° 134° (SE) 17:13:45 145.827
XW-2D 01 Mar 17:03:17 17:07:04 57° 67° (ENE) 17:10:53 145.860 - 145.880
AAUSAT CUBESAT 2 01 Mar 17:04:29 17:05:55 12° 36° (NE) 17:07:21 437.432
XW-2B 01 Mar 17:08:26 17:12:15 61° 68° (ENE) 17:16:05 145.730 - 145.750
XW-2A 01 Mar 17:08:54 17:11:24 19° 52° (NE) 17:13:55 145.665 - 145.685
STARS 01 Mar 17:11:04 17:14:59 30° 94° (E) 17:18:54 437.465
NUDT-PHONESAT 01 Mar 17:11:38 17:15:21 56° 67° (ENE) 17:19:07 437.300
ITUPSAT 1 01 Mar 17:14:11 17:18:43 42° 303° (WNW) 17:23:14 437.325
XW-2C 01 Mar 17:17:16 17:21:07 72° 69° (ENE) 17:25:00 145.795 - 145.815
BEESAT 01 Mar 17:17:29 17:21:58 40° 304° (NW) 17:26:25 436.000
YUBILEINY 01 Mar 17:20:41 17:27:18 23° 18° (NNE) 17:33:51 435.215
SEEDS 01 Mar 17:27:31 17:30:41 21° 48° (NE) 17:33:50 437.485
AO-73 01 Mar 17:36:13 17:38:33 14° 36° (NE) 17:40:54 145.935
M-CUBED/EXP-1 PRIME 01 Mar 17:36:23 17:38:51 16° 97° (E) 17:41:24 437.505
Oscar 11 01 Mar 17:37:18 17:39:05 12° 35° (NE) 17:40:53 .
LilacSat-2 01 Mar 17:39:25 17:43:19 75° 255° (WSW) 17:47:14 437.200
HO-68 01 Mar 17:43:13 17:50:12 57° 54° (NE) 17:57:11 435.675
NO-84 01 Mar 17:43:40 17:45:58 17° 154° (SSE) 17:48:24 435.350 FM
CUBEBUG 2 01 Mar 17:47:56 17:51:43 25° 49° (NE) 17:55:35 437.445
RS-15 01 Mar 18:03:22 18:15:04 57° 127° (SE) 18:26:58 29.354- 29.394
DOVE 4 01 Mar 18:04:21 18:08:27 49° 260° (W) 18:12:46 437.250
CUBESAT XI-V 01 Mar 18:07:31 18:12:10 89° 275° (W) 18:16:47 437.345
CUTE 1.7 + AOD 2 01 Mar 18:13:57 18:18:03 48° 63° (ENE) 18:22:10 437.475
UWE-3 01 Mar 18:14:46 18:18:39 27° 51° (NE) 18:22:35 435.000/436.395/437.385
KAITUO 1B 01 Mar 18:16:50 18:20:30 44° 261° (W) 18:24:12 145.475/437.950
ZACube-1 01 Mar 18:24:53 18:28:32 24° 48° (NE) 18:32:11 437.345
KKS-1 01 Mar 18:27:11 18:31:33 54° 298° (WNW) 18:35:56 437.445
AO-7 01 Mar 18:28:50 18:30:01 10° 296° (WNW) 18:31:12 .
XW-2F 01 Mar 18:30:14 18:33:44 32° 265° (W) 18:37:14 145.980 - 146.000
CUTE-I 01 Mar 18:31:30 18:36:35 42° 263° (W) 18:41:43 437.470
MOZHAYETS 4 01 Mar 18:32:40 18:36:25 25° 312° (NW) 18:40:08
AAUSAT CUBESAT 2 01 Mar 18:36:37 18:40:23 34° 58° (ENE) 18:44:09 437.432
XW-2D 01 Mar 18:38:13 18:41:33 27° 267° (W) 18:44:55 145.860 - 145.880
XW-2A 01 Mar 18:40:20 18:43:47 86° 248° (WSW) 18:47:17 145.665 - 145.685
XW-2B 01 Mar 18:43:31 18:46:46 25° 268° (W) 18:50:04 145.730 - 145.750
NUDT-PHONESAT 01 Mar 18:46:19 18:49:35 27° 267° (W) 18:52:51 437.300
PCSat 01 Mar 18:46:26 18:51:52 68° 337° (NNW) 18:57:20 145.827
STARS 01 Mar 18:47:16 18:51:41 64° 295° (WNW) 18:56:05 437.465
ITUPSAT 1 01 Mar 18:52:40 18:55:34 16° 326° (NW) 18:58:26 437.325
XW-2C 01 Mar 18:52:41 18:55:45 22° 270° (W) 18:58:50 145.795 - 145.815
STRAND 1 01 Mar 18:53:50 18:57:38 20° 85° (E) 19:01:23 437.568
BEESAT 01 Mar 18:55:57 18:58:43 15° 327° (NNW) 19:01:28 436.000
SEEDS 01 Mar 19:01:38 19:05:52 78° 70° (ENE) 19:10:06 437.485
AO-73 01 Mar 19:09:33 19:13:46 38° 58° (ENE) 19:18:02 145.935
M-CUBED/EXP-1 PRIME 01 Mar 19:10:09 19:13:53 78° 118° (ESE) 19:17:52 437.505
Oscar 11 01 Mar 19:10:14 19:14:11 35° 57° (ENE) 19:18:09 .
LilacSat-2 01 Mar 19:15:58 19:18:17 15° 275° (W) 19:20:38 437.200
YUBILEINY 01 Mar 19:18:59 19:27:08 40° 49° (NE) 19:35:13 435.215
NO-84 01 Mar 19:19:48 19:22:48 26° 176° (S) 19:26:02 435.350 FM
CUBEBUG 2 01 Mar 19:23:12 19:27:50 86° 73° (ENE) 19:32:37 437.445
DELFI C3 01 Mar 19:25:58 19:28:58 21° 50° (NE) 19:31:58 145.870
HO-68 01 Mar 19:31:02 19:38:05 57° 257° (WSW) 19:45:10 435.675
CUBESAT XI-V 01 Mar 19:45:20 19:49:06 25° 311° (NW) 19:52:52 437.345
DOVE 4 01 Mar 19:46:08 19:47:21 11° 283° (WNW) 19:48:37 437.250
CUTE 1.7 + AOD 2 01 Mar 19:50:03 19:54:02 37° 264° (W) 19:58:02 437.475
UWE-3 01 Mar 19:50:04 19:54:41 85° 253° (WSW) 19:59:25 435.000/436.395/437.385
ZACube-1 01 Mar 19:59:43 20:04:17 82° 71° (ENE) 20:08:56 437.345
KKS-1 01 Mar 20:04:24 20:07:22 18° 320° (NW) 20:10:18 437.445
MOZHAYETS 4 01 Mar 20:11:26 20:12:13 10° 334° (NNW) 20:13:01
AAUSAT CUBESAT 2 01 Mar 20:11:43 20:15:47 52° 259° (W) 20:19:51 437.432
LO-87 01 Mar 20:13:46 20:15:20 12° 43° (NE) 20:16:54 145.935 - 145.965
RS-15 01 Mar 20:14:48 20:27:09 89° 334° (NNW) 20:39:37 29.354- 29.394
XW-2A 01 Mar 20:15:06 20:17:08 15° 274° (W) 20:19:11 145.665 - 145.685
CUTE-I 01 Mar 20:16:27 20:18:10 11° 286° (WNW) 20:19:52 437.470
ESTCUBE 1 01 Mar 20:20:53 20:23:29 15° 38° (NE) 20:26:07 437.505/2401.250
STARS 01 Mar 20:24:13 20:27:24 20° 317° (NW) 20:30:34 437.465
VELOX 1 01 Mar 20:26:35 20:27:27 10° 28° (NNE) 20:28:19 145.980
PCSat 01 Mar 20:30:33 20:35:54 53° 2° (N) 20:41:16 145.827
STRAND 1 01 Mar 20:32:30 20:37:42 74° 107° (ESE) 20:42:52 437.568
SEEDS 01 Mar 20:38:41 20:42:03 23° 271° (W) 20:45:26 437.485
M-CUBED/EXP-1 PRIME 01 Mar 20:45:03 20:48:07 26° 315° (NW) 20:51:22 437.505
AO-73 01 Mar 20:45:27 20:49:56 54° 259° (W) 20:54:28 145.935
Oscar 11 01 Mar 20:45:55 20:50:13 56° 258° (WSW) 20:54:32 .
NO-84 01 Mar 20:56:51 20:59:46 22° 196° (SSW) 21:02:51 435.350 FM
DELFI C3 01 Mar 20:59:23 21:03:20 88° 74° (ENE) 21:07:19 145.870
CUBEBUG 2 01 Mar 21:01:20 21:05:04 23° 273° (W) 21:08:53 437.445
YUBILEINY 01 Mar 21:16:16 21:25:05 89° 257° (WSW) 21:33:50 435.215
HO-68 01 Mar 21:22:38 21:27:30 19° 282° (WNW) 21:32:22 435.675
SO-50 01 Mar 21:23:12 21:25:47 15° 117° (ESE) 21:28:22 436.795
CUBESAT XI-V 01 Mar 21:24:18 21:25:09 10° 334° (NNW) 21:26:00 437.345
UWE-3 01 Mar 21:28:21 21:31:51 21° 274° (W) 21:35:24 435.000/436.395/437.385
FO-29 01 Mar 21:28:32 21:33:48 19° 72° (ENE) 21:38:47 435.910
SPROUT 01 Mar 21:30:01 21:32:43 17° 42° (NE) 21:35:27 437.525
DX 1 01 Mar 21:35:30 21:37:52 15° 37° (NE) 21:40:15 434.975-435.025
ZACube-1 01 Mar 21:37:23 21:41:07 24° 272° (W) 21:44:54 437.345
UKube-1 01 Mar 21:37:50 21:39:48 13° 34° (NE) 21:41:46 .
LO-87 01 Mar 21:44:38 21:48:04 47° 64° (ENE) 21:51:32 145.935 - 145.965
AAUSAT CUBESAT 2 01 Mar 21:50:51 21:52:14 11° 281° (W) 21:53:37 437.432
PRISM 01 Mar 21:51:40 21:55:23 32° 96° (E) 21:59:06 437.425
50 SAT 01 Mar 21:53:09 21:55:08 15° 47° (NE) 21:57:07 437.505
O/OREOS (USA 219) 01 Mar 21:54:42 21:57:54 19° 105° (ESE) 22:01:08 437.305
ESTCUBE 1 01 Mar 21:55:07 21:59:25 45° 60° (ENE) 22:03:43 437.505/2401.250
TIGRISAT 01 Mar 21:57:53 22:01:43 24° 88° (E) 22:05:32 435.000
VELOX 1 01 Mar 21:59:01 22:02:40 26° 50° (NE) 22:06:22 145.980
UNISAT 6 01 Mar 21:59:08 22:03:05 26° 89° (E) 22:07:00 437.425
STRAND 1 01 Mar 22:11:59 22:16:37 34° 309° (NW) 22:21:14 437.568
PCSat 01 Mar 22:14:24 22:19:53 75° 27° (NNE) 22:25:21 145.827
M-CUBED/EXP-1 PRIME 01 Mar 22:20:55 22:21:40 11° 337° (NNW) 22:22:28 437.505
AO-73 01 Mar 22:25:03 22:27:13 13° 281° (W) 22:29:26 145.935
Oscar 11 01 Mar 22:25:17 22:27:20 13° 280° (W) 22:29:23 .
RS-15 01 Mar 22:28:00 22:40:28 81° 8° (N) 22:52:49 29.354- 29.394
NO-84 01 Mar 22:35:32 22:36:28 11° 216° (SW) 22:37:25 435.350 FM
DELFI C3 01 Mar 22:35:54 22:38:43 18° 273° (W) 22:41:32 145.870
SO-50 01 Mar 23:00:55 23:05:21 46° 139° (SE) 23:09:45 436.795
SPROUT 01 Mar 23:03:42 23:07:53 53° 63° (ENE) 23:12:06 437.525
DX 1 01 Mar 23:09:04 23:13:10 42° 59° (ENE) 23:17:17 434.975-435.025
UKube-1 01 Mar 23:10:53 23:14:50 36° 56° (NE) 23:18:48 .
FO-29 01 Mar 23:13:04 23:20:43 55° 97° (E) 23:27:42 435.910
YUBILEINY 01 Mar 23:13:29 23:21:03 35° 282° (WNW) 23:28:34 435.215
DUCHIFAT 1 01 Mar 23:14:51 23:17:16 15° 83° (E) 23:19:40 145.980
LO-87 01 Mar 23:18:37 23:21:44 28° 266° (W) 23:24:53 145.935 - 145.965
50 SAT 01 Mar 23:24:13 23:27:40 62° 67° (ENE) 23:31:08 437.505
PRISM 01 Mar 23:26:55 23:30:53 52° 297° (WNW) 23:34:52 437.425
EO-79 01 Mar 23:31:16 23:34:35 21° 88° (E) 23:37:52 145.935-145.965
ESTCUBE 1 01 Mar 23:31:59 23:36:18 44° 261° (W) 23:40:38 437.505/2401.250
O/OREOS (USA 219) 01 Mar 23:32:10 23:36:40 75° 126° (SE) 23:41:14 437.305
TIGRISAT 01 Mar 23:34:14 23:39:00 84° 290° (WNW) 23:43:41 435.000
VELOX 1 01 Mar 23:34:22 23:38:47 82° 253° (WSW) 23:43:13 145.980
UNISAT 6 01 Mar 23:35:35 23:40:20 79° 290° (WNW) 23:45:01 437.425
ITUPSAT 1 01 Mar 23:40:37 23:43:46 18° 37° (NE) 23:46:55 437.325
BEESAT 01 Mar 23:43:33 23:46:46 18° 38° (NE) 23:49:59 436.000
NANOSAT C BR1 01 Mar 23:44:49 23:48:22 24° 90° (E) 23:51:54 145.865
POLYITAN 1 01 Mar 23:50:15 23:54:01 28° 93° (E) 23:57:45 437.675
AIST 2D 01 Mar 23:50:34 23:53:56 37° 97° (E) 23:57:16 435.315
BUGSAT 1 01 Mar 23:51:01 23:53:05 13° 82° (E) 23:55:09 437.445
STRAND 1 01 Mar 23:51:45 23:54:35 15° 332° (NNW) 23:57:23 437.568
QB50P2 01 Mar 23:53:25 23:57:17 31° 94° (E) 00:01:07 145.880/145.840
PCSat 01 Mar 23:57:58 00:03:11 48° 231° (SW) 00:08:23 145.827
SPROUT 02 Mar 00:40:07 00:44:02 34° 265° (W) 00:47:59 437.525
RS-15 02 Mar 00:40:58 00:53:20 75° 219° (SW) 01:05:22 29.354- 29.394
SO-50 02 Mar 00:41:04 00:45:43 81° 342° (NNW) 00:50:18 436.795
DX 1 02 Mar 00:45:15 00:49:24 44° 260° (W) 00:53:36 434.975-435.025
Oscar 19 02 Mar 00:46:15 00:49:31 17° 82° (E) 00:52:45 437.125/150
UKube-1 02 Mar 00:46:34 00:50:48 53° 257° (WSW) 00:55:03 .
DUCHIFAT 1 02 Mar 00:49:31 00:53:48 65° 105° (ESE) 00:58:03 145.980
KKS-1 02 Mar 00:50:10 00:51:49 12° 30° (NNE) 00:53:28 437.445
MOZHAYETS 4 02 Mar 00:54:53 00:58:23 22° 45° (NE) 01:01:53
FO-29 02 Mar 00:58:16 01:05:56 61° 302° (WNW) 01:13:01 435.910
50 SAT 02 Mar 00:58:22 01:01:07 21° 268° (W) 01:03:54 437.505
PRISM 02 Mar 01:03:01 01:05:27 16° 319° (NW) 01:07:53 437.425
EO-79 02 Mar 01:06:35 01:10:55 86° 289° (WNW) 01:15:14 145.935-145.965
STARS 02 Mar 01:10:25 01:11:16 10° 27° (NNE) 01:12:08 437.465
TIGRISAT 02 Mar 01:11:22 01:15:11 25° 312° (NW) 01:18:59 435.000
O/OREOS (USA 219) 02 Mar 01:12:11 01:16:27 39° 330° (NNW) 01:20:46 437.305
YUBILEINY 02 Mar 01:12:11 01:15:02 12° 309° (NW) 01:17:54 435.215
UNISAT 6 02 Mar 01:12:45 01:16:30 24° 313° (NW) 01:20:14 437.425
VELOX 1 02 Mar 01:12:49 01:15:56 19° 273° (W) 01:19:06 145.980
ESTCUBE 1 02 Mar 01:13:38 01:14:19 10° 283° (WNW) 01:15:01 437.505/2401.250
ITUPSAT 1 02 Mar 01:16:04 01:20:43 48° 59° (ENE) 01:25:21 437.325
BEESAT 02 Mar 01:19:04 01:23:42 51° 60° (ENE) 01:28:22 436.000
NANOSAT C BR1 02 Mar 01:20:15 01:24:33 74° 291° (WNW) 01:28:49 145.865
AIST 2D 02 Mar 01:23:53 01:27:13 37° 298° (WNW) 01:30:31 435.315
BUGSAT 1 02 Mar 01:25:08 01:29:22 58° 103° (ESE) 01:33:35 437.445
POLYITAN 1 02 Mar 01:25:52 01:30:10 64° 293° (WNW) 01:34:26 437.675
M-CUBED/EXP-1 PRIME 02 Mar 01:27:27 01:27:51 10° 22° (NNE) 01:28:15 437.505
QB50P2 02 Mar 01:29:07 01:33:22 58° 295° (WNW) 01:37:36 145.880/145.840
PCSat 02 Mar 01:42:28 01:45:27 15° 253° (WSW) 01:48:24 145.827
CUBESAT XI-V 02 Mar 02:08:31 02:11:56 21° 45° (NE) 02:15:21 437.345
Gurwin Techsat 1B 02 Mar 02:12:42 02:17:40 37° 95° (E) 02:22:37 435.225
AO-7 02 Mar 02:21:28 02:26:42 18° 75° (ENE) 02:31:53 .
SO-50 02 Mar 02:21:53 02:26:29 68° 5° (N) 02:31:00 436.795
KKS-1 02 Mar 02:23:21 02:27:14 30° 52° (NE) 02:31:09 437.445
Oscar 19 02 Mar 02:24:47 02:29:54 62° 104° (ESE) 02:35:00 437.125/150
DUCHIFAT 1 02 Mar 02:25:30 02:29:17 31° 305° (NW) 02:33:02 145.980
UKube-1 02 Mar 02:26:05 02:27:51 12° 279° (W) 02:29:37 .
DX 1 02 Mar 02:26:26 02:26:45 10° 282° (WNW) 02:27:05 434.975-435.025
MOZHAYETS 4 02 Mar 02:30:18 02:34:56 70° 67° (ENE) 02:39:35
STARS 02 Mar 02:42:43 02:46:22 26° 49° (NE) 02:50:02 437.465
EO-79 02 Mar 02:42:51 02:46:15 23° 311° (NW) 02:49:38 145.935-145.965
FO-29 02 Mar 02:43:18 02:49:47 30° 326° (NNW) 02:55:57 435.910
TIGRISAT 02 Mar 02:49:27 02:50:30 11° 334° (NNW) 02:51:34 435.000
UNISAT 6 02 Mar 02:51:03 02:51:48 10° 336° (NNW) 02:52:34 437.425
O/OREOS (USA 219) 02 Mar 02:53:09 02:56:57 25° 355° (N) 03:00:47 437.305
RS-15 02 Mar 02:53:29 03:04:17 39° 248° (WSW) 03:14:50 29.354- 29.394
ITUPSAT 1 02 Mar 02:54:02 02:58:39 44° 261° (W) 03:03:18 437.325
NANOSAT C BR1 02 Mar 02:56:32 02:59:43 21° 313° (NW) 03:02:53 145.865
BEESAT 02 Mar 02:57:05 03:01:38 42° 262° (W) 03:06:14 436.000
M-CUBED/EXP-1 PRIME 02 Mar 02:58:33 03:01:22 26° 45° (NE) 03:04:18 437.505
AIST 2D 02 Mar 02:58:58 02:59:35 10° 319° (NW) 03:00:11 435.315
BUGSAT 1 02 Mar 03:00:46 03:04:35 33° 304° (NW) 03:08:25 437.445
POLYITAN 1 02 Mar 03:02:17 03:05:18 19° 316° (NW) 03:08:20 437.675
QB50P2 02 Mar 03:05:36 03:08:28 18° 317° (NW) 03:11:20 145.880/145.840
STRAND 1 02 Mar 03:07:04 03:09:07 12° 21° (NNE) 03:11:12 437.568
AO-85 02 Mar 03:07:46 03:08:16 10° 115° (ESE) 03:08:47 145.980
ITAMSAT 1 02 Mar 03:10:12 03:14:41 27° 90° (E) 03:19:07 435.822/435.867
CUBESAT XI-V 02 Mar 03:44:04 03:48:41 67° 67° (ENE) 03:53:17 437.345
Gurwin Techsat 1B 02 Mar 03:52:41 03:57:58 63° 298° (WNW) 04:03:14 435.225
KKS-1 02 Mar 03:59:07 04:03:33 70° 254° (WSW) 04:08:02 437.445
SO-50 02 Mar 04:02:32 04:07:07 77° 209° (SSW) 04:11:38 436.795
DUCHIFAT 1 02 Mar 04:02:33 04:03:51 11° 328° (NNW) 04:05:08 145.980
Oscar 19 02 Mar 04:04:22 04:09:07 39° 306° (NW) 04:13:51 437.125/150
MOZHAYETS 4 02 Mar 04:08:30 04:12:32 28° 268° (W) 04:16:35
AO-7 02 Mar 04:13:40 04:21:45 50° 101° (E) 04:29:47 .
STARS 02 Mar 04:17:55 04:22:19 85° 247° (WSW) 04:26:48 437.465
FO-29 02 Mar 04:27:27 04:32:45 20° 351° (N) 04:37:54 435.910
M-CUBED/EXP-1 PRIME 02 Mar 04:32:23 04:35:39 63° 246° (WSW) 04:39:06 437.505
O/OREOS (USA 219) 02 Mar 04:33:31 04:37:35 31° 20° (NNE) 04:41:41 437.305
ITUPSAT 1 02 Mar 04:36:21 04:37:47 11° 283° (WNW) 04:39:12 437.325
BUGSAT 1 02 Mar 04:37:23 04:38:55 12° 326° (NW) 04:40:27 437.445
BEESAT 02 Mar 04:39:57 04:40:46 10° 284° (WNW) 04:41:34 436.000
STRAND 1 02 Mar 04:42:40 04:46:50 25° 44° (NE) 04:51:02 437.568
AO-85 02 Mar 04:43:47 04:47:42 36° 136° (SE) 04:51:28 145.980
ITAMSAT 1 02 Mar 04:49:29 04:54:46 83° 293° (WNW) 05:00:01 435.822/435.867
RS-15 02 Mar 05:08:09 05:12:43 13° 277° (W) 05:17:15 29.354- 29.394
CUBESAT XI-V 02 Mar 05:22:24 05:26:28 29° 268° (W) 05:30:32 437.345
Gurwin Techsat 1B 02 Mar 05:33:04 05:37:10 23° 320° (NW) 05:41:15 435.225
KKS-1 02 Mar 05:38:09 05:40:57 16° 276° (W) 05:43:47 437.445
KAITUO 1B 02 Mar 05:38:31 05:39:59 12° 82° (E) 05:41:26 145.475/437.950
SO-50 02 Mar 05:43:15 05:47:08 28° 231° (SW) 05:50:58 436.795
Oscar 19 02 Mar 05:44:17 05:47:20 16° 329° (NNW) 05:50:22 437.125/150
DOVE 4 02 Mar 05:51:14 05:55:04 24° 89° (E) 05:59:03 437.250
XW-2F 02 Mar 05:51:43 05:54:16 17° 86° (E) 05:56:48 145.980 - 146.000
BEESAT 3 02 Mar 05:53:56 05:56:56 21° 125° (SE) 05:59:58 437.485
STARS 02 Mar 05:56:08 05:59:22 20° 273° (W) 06:02:37 437.465
XW-2D 02 Mar 05:59:35 06:02:29 20° 89° (E) 06:05:22 145.860 - 145.880
XW-2B 02 Mar 06:04:43 06:07:44 21° 89° (E) 06:10:42 145.730 - 145.750
NUDT-PHONESAT 02 Mar 06:05:48 06:08:34 19° 88° (E) 06:11:18 437.300
AO-7 02 Mar 06:06:43 06:15:01 70° 306° (NW) 06:23:14 .
FO-29 02 Mar 06:09:53 06:15:27 22° 16° (NNE) 06:20:58 435.910
M-CUBED/EXP-1 PRIME 02 Mar 06:10:05 06:10:58 11° 268° (W) 06:11:52 437.505
O/OREOS (USA 219) 02 Mar 06:13:07 06:17:42 69° 44° (NE) 06:22:18 437.305
XW-2C 02 Mar 06:13:30 06:16:44 25° 91° (E) 06:19:55 145.795 - 145.815
STRAND 1 02 Mar 06:20:16 06:25:26 76° 66° (ENE) 06:30:38 437.568
AO-85 02 Mar 06:23:41 06:27:54 86° 337° (NNW) 06:31:56 145.980
ITAMSAT 1 02 Mar 06:29:20 06:33:44 28° 315° (NW) 06:38:07 435.822/435.867
LilacSat-2 02 Mar 06:36:08 06:39:47 37° 97° (E) 06:43:22 437.200
CUTE-I 02 Mar 06:36:40 06:41:41 38° 95° (E) 06:46:41 437.470
BEESAT 2 02 Mar 06:44:02 06:47:21 25° 128° (SE) 06:50:41 435.950
HO-68 02 Mar 06:46:33 06:51:43 21° 80° (E) 06:56:51 435.675
CUBEBUG 2 02 Mar 07:04:31 07:06:16 12° 76° (ENE) 07:08:01 437.445
KAITUO 1B 02 Mar 07:11:04 07:14:51 60° 103° (ESE) 07:18:34 145.475/437.950
Gurwin Techsat 1B 02 Mar 07:13:31 07:15:31 12° 344° (NNW) 07:17:31 435.225
PRISM 02 Mar 07:16:58 07:20:16 24° 51° (NE) 07:23:34 437.425
CUTE 1.7 + AOD 2 02 Mar 07:23:44 07:27:03 22° 88° (E) 07:30:21 437.475
XW-2A 02 Mar 07:24:41 07:27:34 23° 93° (E) 07:30:25 145.665 - 145.685
XW-2F 02 Mar 07:25:10 07:29:02 87° 106° (ESE) 07:32:51 145.980 - 146.000
DOVE 4 02 Mar 07:28:38 07:33:19 86° 289° (WNW) 07:38:18 437.250
UWE-3 02 Mar 07:29:59 07:32:02 13° 77° (ENE) 07:34:03 435.000/436.395/437.385
BEESAT 3 02 Mar 07:30:03 07:34:00 66° 147° (SSE) 07:38:00 437.485
TIGRISAT 02 Mar 07:31:42 07:35:12 21° 45° (NE) 07:38:44 435.000
UNISAT 6 02 Mar 07:33:01 07:36:36 22° 46° (NE) 07:40:14 437.425
XW-2D 02 Mar 07:33:19 07:37:11 78° 290° (WNW) 07:41:00 145.860 - 145.880
XW-2B 02 Mar 07:38:31 07:42:22 73° 291° (WNW) 07:46:11 145.730 - 145.750
NUDT-PHONESAT 02 Mar 07:39:12 07:43:01 81° 289° (WNW) 07:46:47 437.300
AAUSAT CUBESAT 2 02 Mar 07:43:34 07:45:53 14° 83° (E) 07:48:11 437.432
XW-2C 02 Mar 07:47:27 07:51:17 62° 292° (WNW) 07:55:03 145.795 - 145.815
FO-29 02 Mar 07:51:45 07:58:37 36° 41° (NE) 08:05:31 435.910
O/OREOS (USA 219) 02 Mar 07:52:48 07:56:55 34° 246° (WSW) 08:01:02 437.305
AO-7 02 Mar 07:59:29 08:06:51 37° 332° (NNW) 08:14:11 .
STRAND 1 02 Mar 08:00:37 08:05:08 30° 268° (W) 08:09:41 437.568
AO-85 02 Mar 08:04:29 08:08:34 61° 1° (N) 08:12:28 145.980
ITAMSAT 1 02 Mar 08:09:20 08:11:48 14° 338° (NNW) 08:14:16 435.822/435.867
SEEDS 02 Mar 08:10:09 08:14:01 34° 95° (E) 08:17:50 437.485
LilacSat-2 02 Mar 08:10:28 08:14:09 41° 298° (WNW) 08:17:46 437.200
CUTE-I 02 Mar 08:16:44 08:22:05 63° 297° (WNW) 08:27:24 437.470
BEESAT 2 02 Mar 08:20:40 08:24:42 76° 150° (SSE) 08:28:46 435.950
Oscar 11 02 Mar 08:22:43 08:25:22 16° 83° (E) 08:28:00 .
AO-73 02 Mar 08:22:48 08:25:59 18° 84° (E) 08:29:09 145.935
HO-68 02 Mar 08:33:53 08:41:00 61° 104° (ESE) 08:48:05 435.675
YUBILEINY 02 Mar 08:36:52 08:43:36 26° 70° (ENE) 08:50:18 435.215
CUBEBUG 2 02 Mar 08:39:28 08:44:06 46° 98° (E) 08:48:41 437.445
DUCHIFAT 1 02 Mar 08:43:22 08:45:32 14° 38° (NE) 08:47:43 145.980
KAITUO 1B 02 Mar 08:45:26 08:48:41 27° 304° (NW) 08:51:54 145.475/437.950
PRISM 02 Mar 08:51:08 08:55:13 82° 254° (WSW) 08:59:19 437.425
Gurwin Techsat 1B 02 Mar 08:52:08 08:53:28 11° 8° (N) 08:54:47 435.225
XW-2A 02 Mar 08:57:11 09:00:37 56° 293° (WNW) 09:04:02 145.665 - 145.685
CUTE 1.7 + AOD 2 02 Mar 08:59:10 09:03:26 81° 288° (WNW) 09:07:39 437.475
XW-2F 02 Mar 08:59:51 09:02:47 21° 309° (NW) 09:05:42 145.980 - 146.000
EO-79 02 Mar 08:59:53 09:02:45 18° 43° (NE) 09:05:38 145.935-145.965
Oscar 19 02 Mar 09:00:33 09:02:12 11° 18° (NNE) 09:03:51 437.125/150
AIST 2D 02 Mar 09:03:29 09:05:53 17° 50° (NE) 09:08:18 435.315
UWE-3 02 Mar 09:05:01 09:09:37 50° 99° (E) 09:14:08 435.000/436.395/437.385
TIGRISAT 02 Mar 09:06:37 09:11:14 68° 67° (ENE) 09:15:57 435.000
DOVE 4 02 Mar 09:06:49 09:10:36 25° 310° (NW) 09:14:33 437.250
BEESAT 3 02 Mar 09:07:44 09:11:43 65° 350° (N) 09:15:44 437.485
UNISAT 6 02 Mar 09:08:05 09:12:42 73° 68° (ENE) 09:17:26 437.425
XW-2D 02 Mar 09:08:09 09:10:53 19° 311° (NW) 09:13:36 145.860 - 145.880
NANOSAT C BR1 02 Mar 09:12:57 09:16:01 20° 46° (NE) 09:19:07 145.865
ZACube-1 02 Mar 09:13:18 09:17:40 41° 97° (E) 09:21:56 437.345
XW-2B 02 Mar 09:13:24 09:16:03 18° 312° (NW) 09:18:40 145.730 - 145.750
NUDT-PHONESAT 02 Mar 09:13:45 09:16:28 19° 310° (NW) 09:19:10 437.300
BUGSAT 1 02 Mar 09:17:54 09:19:41 13° 36° (NE) 09:21:29 437.445
AAUSAT CUBESAT 2 02 Mar 09:18:02 09:22:10 67° 105° (ESE) 09:26:16 437.432
POLYITAN 1 02 Mar 09:18:36 09:21:54 22° 48° (NE) 09:25:14 437.675
QB50P2 02 Mar 09:21:40 09:25:05 23° 49° (NE) 09:28:30 145.880/145.840
XW-2C 02 Mar 09:22:27 09:24:51 16° 314° (NW) 09:27:15 145.795 - 145.815
ISS 02 Mar 09:35:01 09:36:41 13° 177° (S) 09:38:22 437.550
FO-29 02 Mar 09:35:06 09:42:49 77° 65° (ENE) 09:50:42 435.910
AO-85 02 Mar 09:45:08 09:49:10 88° 201° (SSW) 09:53:06 145.980
Tancredo 1 02 Mar 09:45:47 09:47:22 13° 180° (S) 09:48:56 437.200
SEEDS 02 Mar 09:45:50 09:49:54 50° 296° (WNW) 09:53:56 437.485
LilacSat-2 02 Mar 09:45:58 09:47:35 12° 320° (NW) 09:49:11 437.200
ITAMSAT 1 02 Mar 09:48:26 09:49:21 10° 3° (N) 09:50:15 435.822/435.867
AO-7 02 Mar 09:51:06 09:57:47 28° 358° (N) 10:04:28 .
CUTE-I 02 Mar 09:57:13 10:01:23 23° 320° (NW) 10:05:33 437.470
Oscar 11 02 Mar 09:57:59 10:02:21 69° 106° (ESE) 10:06:39 .
AO-73 02 Mar 09:58:24 10:03:01 77° 106° (ESE) 10:07:31 145.935
BEESAT 2 02 Mar 09:58:38 10:02:38 62° 353° (N) 10:06:42 435.950
DELFI C3 02 Mar 10:00:27 10:04:03 33° 95° (E) 10:07:37 145.870
CUBEBUG 2 02 Mar 10:16:12 10:20:46 45° 300° (WNW) 10:25:18 437.445
DUCHIFAT 1 02 Mar 10:16:19 10:20:18 41° 59° (ENE) 10:24:20 145.980
HO-68 02 Mar 10:21:51 10:28:47 54° 308° (NW) 10:35:41 435.675
Gurwin Techsat 1B 02 Mar 10:28:09 10:31:38 18° 33° (NNE) 10:35:08 435.225
PRISM 02 Mar 10:28:26 10:31:10 17° 273° (W) 10:33:55 437.425
YUBILEINY 02 Mar 10:30:16 10:38:58 69° 96° (E) 10:47:39 435.215
XW-2A 02 Mar 10:30:59 10:32:46 14° 314° (NW) 10:34:32 145.665 - 145.685
EO-79 02 Mar 10:33:38 10:37:50 59° 65° (ENE) 10:42:05 145.935-145.965
LO-87 02 Mar 10:35:02 10:37:08 15° 86° (E) 10:39:14 145.935 - 145.965
AIST 2D 02 Mar 10:35:03 10:38:38 78° 72° (ENE) 10:42:15 435.315
CUTE 1.7 + AOD 2 02 Mar 10:35:33 10:38:47 21° 311° (NW) 10:41:59 437.475
Oscar 19 02 Mar 10:36:03 10:39:59 23° 41° (NE) 10:43:55 437.125/150
UWE-3 02 Mar 10:41:38 10:46:04 41° 301° (WNW) 10:50:25 435.000/436.395/437.385
TIGRISAT 02 Mar 10:44:16 10:48:20 29° 268° (W) 10:52:29 435.000
BEESAT 3 02 Mar 10:45:38 10:49:40 68° 13° (NNE) 10:53:41 437.485
UNISAT 6 02 Mar 10:45:54 10:49:53 28° 269° (W) 10:53:57 437.425
DOVE 4 02 Mar 10:46:21 10:47:00 10° 332° (NNW) 10:47:39 437.250
NANOSAT C BR1 02 Mar 10:46:55 10:51:09 70° 67° (ENE) 10:55:26 145.865
ZACube-1 02 Mar 10:49:38 10:54:04 48° 298° (WNW) 10:58:25 437.345
BUGSAT 1 02 Mar 10:50:15 10:54:04 36° 58° (ENE) 10:57:57 437.445
POLYITAN 1 02 Mar 10:52:54 10:57:11 81° 71° (ENE) 11:01:32 437.675
AAUSAT CUBESAT 2 02 Mar 10:53:52 10:57:24 28° 306° (NW) 11:00:55 437.432
QB50P2 02 Mar 10:56:09 11:00:27 88° 69° (ENE) 11:04:47 145.880/145.840
ISS 02 Mar 11:11:22 11:12:10 11° 197° (SSW) 11:12:57 437.550
ESTCUBE 1 02 Mar 11:13:19 11:16:48 21° 88° (E) 11:20:14 437.505/2401.250
VELOX 1 02 Mar 11:15:37 11:16:20 10° 78° (ENE) 11:17:02 145.980
FO-29 02 Mar 11:21:07 11:28:24 43° 268° (W) 11:35:52 435.910
SEEDS 02 Mar 11:22:22 11:24:48 15° 318° (NW) 11:27:14 437.485
ITAMSAT 1 02 Mar 11:24:02 11:26:57 15° 27° (NNE) 11:29:53 435.822/435.867
AO-85 02 Mar 11:25:44 11:29:14 30° 228° (SW) 11:32:42 145.980
Oscar 11 02 Mar 11:34:28 11:38:14 29° 306° (NW) 11:41:58 .
AO-73 02 Mar 11:35:00 11:38:56 28° 308° (NW) 11:42:47 145.935
DELFI C3 02 Mar 11:35:13 11:39:02 48° 296° (WNW) 11:42:49 145.870
BEESAT 2 02 Mar 11:36:41 11:40:45 73° 17° (NNE) 11:44:50 435.950
CUTE-I 02 Mar 11:37:40 11:39:50 12° 344° (NNW) 11:42:00 437.470
AO-7 02 Mar 11:41:25 11:48:40 35° 25° (NNE) 11:55:54 .
DUCHIFAT 1 02 Mar 11:51:57 11:56:01 44° 261° (W) 12:00:08 145.980
CUBEBUG 2 02 Mar 11:53:32 11:56:27 16° 322° (NW) 11:59:22 437.445
Gurwin Techsat 1B 02 Mar 12:05:30 12:10:32 44° 55° (NE) 12:15:34 435.225
LO-87 02 Mar 12:07:35 12:11:13 80° 108° (ESE) 12:14:51 145.935 - 145.965
HO-68 02 Mar 12:09:37 12:15:21 27° 333° (NNW) 12:21:05 435.675
AIST 2D 02 Mar 12:09:45 12:12:20 18° 272° (W) 12:14:55 435.315
EO-79 02 Mar 12:10:08 12:13:54 30° 266° (W) 12:17:43 145.935-145.965
50 SAT 02 Mar 12:11:57 12:14:11 16° 88° (E) 12:16:24 437.505
SPROUT 02 Mar 12:14:26 12:17:57 23° 90° (E) 12:21:26 437.525
